Location: *
(38.9555°S, 57.3572°E)
Time: 01:21:30
(UTC+00:00)

Cosmos 883 Rocket - Pass Details

Date: 15 July 2020
Orbit: 951 x 994 km, 83.0° (Epoch: 06 August)

Event Time Altitude Azimuth Distance (km) Brightness Sun altitude
Rises 14:56:46 0° 5° (N) 3,699 7.6 -20.8°
Reaches altitude 10° 14:59:18 10° 8° (N) 2,758 6.9 -21.3°
Maximum altitude 15:05:33 63° 87° (E) 1,113 4.5 -22.5°
Enters shadow 15:11:19 13° 165° (SSE) 2,591 6.5 -23.6°
